RS-40
1 38735U 12041C 16357.55511252 -.00000000 00000-0 -72511-4 0 9994
2 38735 82.4769 74.3288 0017341 56.2691 304.0038 12.42574147199768
BEESAT-3
1 39134U 13015E 16357.59039236 .00002241 00000-0 12210-3 0 9997
2 39134 64.8701 76.1088 0021532 307.2672 52.6490 15.17030211202683
BEESAT-2
1 39136U 13015G 16357.50571279 .00001655 00000-0 99466-4 0 9995
2 39136 64.8709 84.7162 0022838 305.3011 54.5977 15.14479030202513
ZACUBE-1
1 39417U 13066B 16357.16946165 .00000371 00000-0 53432-4 0 9992
2 39417 97.6555 41.7629 0060681 128.0369 232.6343 14.80581579166589
TRITON-1
1 39427U 13066M 16357.10337185 .00000285 00000-0 53876-4 0 9999
2 39427 97.6500 18.2371 0114218 195.2416 164.5339 14.67344680165074
GOMX-1
1 39430U 13066Q 16357.89495203 .00000234 00000-0 51977-4 0 9999
2 39430 97.6631 4.4246 0150953 239.5226 119.0994 14.58755476164225
LO-74
1 39440U 13066AA 16357.70923795 .00000306 00000-0 49841-4 0 9999
2 39440 97.6508 32.8838 0081686 151.9324 208.6327 14.75331203166070
SPROUT
1 39770U 14029E 16357.81738514 .00000698 00000-0 86254-4 0 9993
2 39770 97.8711 93.0104 0009454 177.8288 182.2944 14.85880564139946
EO-80
1 40032U 14033Y 16357.79591290 .00000412 00000-0 51126-4 0 9990
2 40032 97.9180 262.3922 0012492 153.3601 206.8259 14.87815952136213
VELOX-1
1 40057U 14034E 16357.75721536 .00000598 00000-0 92559-4 0 9992
2 40057 98.1896 89.3817 0009903 261.3385 98.6713 14.76951644133710
DAURIA DX 1
1 40071U 14037C 16357.51979143 .00000703 00000-0 98213-4 0 9995
2 40071 98.3306 95.7093 0007267 259.2695 100.7691 14.80937595132827
UKUBE-1
1 40074U 14037F 16357.83621552 .00000117 00000-0 21367-4 0 9996
2 40074 98.3379 99.0132 0003474 254.8614 105.2188 14.83322266133030
HODOYOSHI-1
1 40299U 14070B 16357.53533748 .00000658 00000-0 31961-4 0 9999
2 40299 97.4169 76.8857 0013309 359.9160 56.3806 15.21875518118070
CHUBUSAT-1
1 40300U 14070C 16357.47943716 .00000823 00000-0 40701-4 0 9991
2 40300 97.4114 74.5204 0021056 5.1320 118.7119 15.20438457117930
QSAT-EOS
1 40301U 14070D 16357.50323610 .00002601 00000-0 11478-3 0 9995
2 40301 97.4051 74.1787 0028256 1.3458 124.7798 15.22317468117943
FIREBIRD FU3
1 40377U 15003B 16357.17770824 .00005314 00000-0 23367-3 0 9995
2 40377 99.1050 140.1620 0138873 228.1611 130.7693 15.14163671104214
FIREBIRD FU4
1 40378U 15003C 16357.83315124 .00005402 00000-0 23710-3 0 9997
2 40378 99.1052 140.9701 0139107 225.9113 133.0598 15.14186429104315
GRIFEX
1 40379U 15003D 16357.68184277 .00004622 00000-0 21380-3 0 9998
2 40379 99.1058 139.2876 0144050 231.9319 126.8840 15.12034155104208
NO-84
1 40654U 15025D 16357.33346162 .00007548 00000-0 15304-3 0 03198
2 40654 054.9983 304.9560 0193751 181.1671 178.8961 15.29918854052792
NO-83
1 40655U 15025E 16357.28970887 .00012394 00000-0 21526-3 0 03547
2 40655 054.9852 291.0042 0167878 188.3186 171.5103 15.37172223052968
DEORBITSAIL
1 40719U 15032E 16356.77255897 .00000560 00000-0 88925-4 0 9990
2 40719 097.9982 246.5603 0016778 358.5411 001.5746 14.75843918078153
NUDT-PHONESAT
1 40900U 15049B 16357.47857795 .00003470 00000-0 17192-3 0 9993
2 40900 97.4447 2.0491 0015958 118.7148 241.5692 15.18313402 69635
XW-2D
1 40907U 15049J 16357.80826093 .00001085 00000-0 62785-4 0 9993
2 40907 97.4507 0.7045 0016414 102.2855 258.0215 15.14221012 69545
XW-2F
1 40910U 15049M 16357.83625063 .00001575 00000-0 87808-4 0 9991
2 40910 97.4533 1.1516 0017346 100.7421 259.5765 15.14920885 69442
XW-2B
1 40911U 15049N 16357.74443019 .00001062 00000-0 61595-4 0 9997
2 40911 97.4553 0.9243 0016309 102.7410 257.5646 15.14192375 69437
DCBB
1 40912U 15049P 16357.41710637 .00001372 00000-0 72687-4 0 9993
2 40912 97.4511 2.0693 0017851 96.1768 38.2573 15.16948747 69481
TW-1C
1 40926U 15051B 16357.86226991 .00007886 00000-0 19987-3 0 9994
2 40926 97.2535 32.9181 0014833 88.8952 358.6662 15.39867742 69763
TW-1A
1 40928U 15051D 16357.54633317 .00003062 00000-0 93047-4 0 9997
2 40928 97.2493 30.4907 0014863 109.6777 48.5392 15.34714245 69597
IO-86
1 40931U 15052B 16357.20281453 .00000715 00000-0 10569-4 0 9995
2 40931 6.0017 54.6047 0013617 261.2546 98.6035 14.76503294 66760
GomX-3
1 40949U 98067HA 16292.18357804 .08527750 12374-4 77882-3 0 9992
2 40949 51.6055 106.7696 0006699 286.1344 73.8944 16.38002265 59645
LQSat
1 40958U 15057A 16357.82867305 -.00000209 00000-0 -24681-4 0 9993
2 40958 97.9964 70.0678 0016801 270.9764 88.9501 14.72931050 65151
AO-85
1 40967U 15058D 16357.38660779 .00000277 00000-0 50579-4 0 03487
2 40967 064.7785 035.1079 0180775 142.7857 218.5928 14.75277918051037
ATHENOXAT-1
1 41168U 15077C 16357.31877035 .00003159 00000-0 14483-3 0 9997
2 41168 14.9861 20.8426 0012731 84.1243 19.5285 15.10901117 56242
ChubuSat-2
1 41338U 16012B 16357.50470426 .00000485 00000-0 31615-4 0 9996
2 41338 31.0020 154.2620 0013795 110.6990 249.5125 14.99600752 46447
ChubuSat-3
1 41339U 16012C 16357.79048367 .00000492 00000-0 32014-4 0 9995
2 41339 31.0108 151.8803 0013495 119.4405 240.7581 14.99816901 46462
Horyu-4
1 41340U 16012D 16356.83700625 .00000639 00000-0 42900-4 0 9991
2 41340 031.0039 156.5375 0014083 117.0222 243.1852 15.00364963046353
OUFTI-1
1 41458U 16025C 16356.99124765 .00000931 00000-0 54671-4 0 9990
2 41458 098.2068 018.3443 0178158 160.5383 200.2764 15.02309688035973
e-st@r-II
1 41459U 16025D 16356.99743475 .00001196 00000-0 68768-4 0 9992
2 41459 98.2082 18.3275 0179011 160.8219 199.9863 15.02222453 35960
AAUSAT4
1 41460U 16025E 16357.41382780 .00003349 00000-0 18567-3 0 9993
2 41460 98.1993 18.8054 0171899 158.9460 201.8977 15.02792629 36039
MinXSS
1 41474U 98067HU 16356.82491368 .00024118 00000-0 18975-3 0 9991
2 41474 51.6415 189.8053 0003488 161.8029 198.3095 15.71339361 34289
CADRE
1 41475U 98067HV 16357.95484465 .00550190 14232-3 10971-2 0 9993
2 41475 51.6353 173.8885 0007212 235.9759 124.0511 15.99209964 34597
NODES 1
1 41477U 98067HX 16356.96713918 .00034704 00000-0 33372-3 0 9997
2 41477 51.6356 192.2046 0003173 139.9482 220.1748 15.66222194 34172
NODES 2
1 41478U 98067HY 16357.55095700 .00033127 00000-0 32023-3 0 9996
2 41478 51.6357 189.3511 0003127 142.6803 217.4411 15.66115222 34264
LO-87
1 41557U 16033B 16357.43983046 .00002163 00000-0 86014-4 0 9999
2 41557 97.4812 70.8975 0013015 270.8671 89.1076 15.26329650 31466
NuSat2
1 41558U 16033C 16357.78620844 .00002007 00000-0 80368-4 0 9995
2 41558 97.4838 71.2684 0012498 267.9942 91.9865 15.26199092 31517
Lapan A3
1 41603U 16040E 16357.86448728 .00000250 00000-0 15123-4 0 9997
2 41603 97.4867 55.7062 0012958 335.7708 126.5042 15.19224500 27884
Swayam
1 41607U 16040J 16357.41613241 .00002308 00000-0 11024-3 0 9997
2 41607 97.4859 55.2913 0013989 340.0076 20.0609 15.19976996 27746
Pratham
1 41783U 16059A 16357.13633758 .00000078 00000-0 24664-4 0 9993
2 41783 98.1934 54.1081 0033522 358.0293 2.0771 14.62790729 12718
OBJECT B
1 41784U 16059B 16357.38860496 .00000146 00000-0 37622-4 0 9996
2 41784 98.1934 54.4081 0031881 357.1229 2.9784 14.63157402 12727
OBJECT C
1 41785U 16059C 16357.86279094 .00000105 00000-0 29826-4 0 9990
2 41785 98.1918 54.8861 0031266 355.2589 4.8282 14.63217185 12791
OBJECT D
1 41786U 16059D 16357.87555211 .00000319 00000-0 66754-4 0 9998
2 41786 98.2193 55.6081 0001485 104.2268 255.9083 14.66316200 12820
